Regional Weather Roundup
Issued by NWS

Home | Current Version | Previous Version | Text Only | Print | Product List | Glossary On
Versions: 1 2 3 4 5 6 7 8 9 10 11 12 13 14 15 16 17 18 19 20 21 22 23 24 25 26 27 28 29 30 31 32 33 34 35 36 37 38 39 40 41 42 43 44 45 46 47 48 49 50
000
ASUS43 KDTX 241301
RWRMI
MICHIGAN HOURLY REGIONAL WEATHER ROUNDUP
NATIONAL WEATHER SERVICE DETROIT/PONTIAC MI
800 AM EST SAT FEB 24 2018

NOTE: "FAIR" INDICATES FEW OR NO CLOUDS BELOW 12,000 FEET WITH NO
SIGNIFICANT WEATHER AND/OR OBSTRUCTION TO VISIBILITY.

MIZ047>049-052>055-059>063-066>070-074>076-081>083-241400-
SOUTHEAST LOWER MICHIGAN

CITY           SKY/WX    TMP DP  RH WIND       PRES   REMARKS
ADRIAN         CLOUDY    36  30  79 NE8       30.21F WCI  30
ALMA           CLOUDY    32  31  96 CALM      30.24F
ANN ARBOR      CLOUDY    36  31  82 N6        30.21F WCI  31
BAD AXE        CLOUDY    31  28  86 NE8       30.27R WCI  24
CARO           CLOUDY    33  30  90 N3        30.24R
DETROIT CITY   CLOUDY    37  30  75 CALM      30.23F
DETROIT        CLOUDY    38  32  79 N5        30.23F WCI  34
FLINT          CLOUDY    34  29  82 NE3       30.23F
GROSSE ILE     CLOUDY    37  32  83 NE5       30.21F WCI  33
HILLSDALE      CLOUDY    34  30  86 E8        30.17F WCI  27
HOWELL         CLOUDY    34  31  88 CALM      30.23R

CITY           SKY/WX    TMP DP  RH WIND       PRES   REMARKS
JACKSON        CLOUDY    35  31  85 NE7       30.20F WCI  29
LAMBERTVILLE   CLOUDY    37  32  82 E7        30.20S WCI  31
LANSING        CLOUDY    33  30  88 CALM      30.24R
LAPEER         CLOUDY    32  32  99 CALM      30.23F
MASON          CLOUDY    35  29  79 NE3       30.22S
MONROE         CLOUDY    37  32  82 NE5       30.21S WCI  33
MT. CLEMENS    CLOUDY    35  35 100 N3        30.22S
PONTIAC        CLOUDY    35  30  82 NE3       30.21S
PORT HOPE        N/A     32  26  78 N10       30.26R WCI  24
PORT HURON     CLOUDY    36  30  80 N3        30.24S
TRI CITIES     CLOUDY    33  28  81 N6        30.25S WCI  28
MIDLAND        CLOUDY    31  30  94 CALM      30.25R
TROY           CLOUDY    37  31  79 NE6       30.25S WCI  33
SAGINAW HB     CLOUDY    32  32 100 N5        30.24S WCI  27
$$
MIZ043>046-050>051-056>058-064>065-071>073-077>080-241400-
SOUTHWEST LOWER MICHIGAN

CITY           SKY/WX    TMP DP  RH WIND       PRES   REMARKS
BATTLE CREEK   CLOUDY    34  29  82 NE8       30.20F WCI  27
BENTON HARBOR  CLOUDY    35  29  78 E5        30.20R WCI  31
BIG RAPIDS     CLOUDY    32  24  73 E3        30.22S
COLDWATER      CLOUDY    35  33  94 E8        30.18S WCI  29
HOLLAND        CLOUDY    33  27  78 NE6       30.22F WCI  28
GRAND RAPIDS   CLOUDY    33  28  81 NE5       30.22S WCI  29
IONIA          MOCLDY    32  31  94 NE3       30.22R
KALAMAZOO      CLOUDY    35  29  78 NE5       30.20S WCI  31
LUDINGTON      FAIR      29  24  84 CALM      30.23F
MARSHALL       CLOUDY    34  31  90 CALM      30.19S
MOUNT PLEASANT CLOUDY    32  28  86 CALM      30.24S
MUSKEGON       CLOUDY    30  25  81 NE5       30.23F WCI  25
SOUTH HAVEN    CLOUDY    33  29  85 NE6       30.20S WCI  28
$$
MIZ016>042-241400-
NORTHERN LOWER MICHIGAN

CITY           SKY/WX    TMP DP  RH WIND       PRES   REMARKS
ALPENA         CLOUDY    31  23  72 CALM      30.27R
BEAVER ISLAND  CLOUDY    31  24  73 CALM      30.25R
BELLAIRE       CLOUDY    31  26  83 CALM      30.26S
CADILLAC       CLOUDY    28  22  78 E8        30.21S WCI  20
CHARLEVOIX     CLOUDY    31  24  74 CALM      30.28S
FRANKFORT      CLOUDY    33  25  72 E3        30.24S
GAYLORD        CLOUDY    28  22  78 CALM      30.22R
GRAYLING       CLOUDY    29  23  79 NE6       30.22F WCI  22
HARBOR SPRINGS CLOUDY    30  24  78 CALM      30.25R
HOUGHTON LAKE  CLOUDY    30  22  72 NE6       30.23S WCI  24
MANISTEE       CLOUDY    32  26  78 NE5       30.24S WCI  27
OSCODA         MOCLDY    30  22  72 N6        30.27R WCI  24
PELLSTON       CLOUDY    30  23  75 S3        30.25R
ROGERS CITY    CLOUDY    31  23  74 CALM      30.27R
TRAVERSE CITY  CLOUDY    33  23  66 E3        30.25S
$$
MIZ007>008-015-241400-
EASTERN UPPER MICHIGAN

CITY           SKY/WX    TMP DP  RH WIND       PRES   REMARKS
KINROSS        CLOUDY    28  22  78 SW3       30.22S
MACKINAC ISLAN CLOUDY    29  24  80 CALM      30.24R
NEWBERRY       CLOUDY    28  20  72 W3        30.21S
S. S. MARIE    CLOUDY    30  23  75 W3        30.21R
MUNISING         N/A     29  26  89 CALM      30.21S
$$
MIZ004>006-011>014-085-241400-
CENTRAL UPPER MICHIGAN

CITY           SKY/WX    TMP DP  RH WIND       PRES   REMARKS
MANISTIQUE     CLOUDY    28  26  93 CALM      30.23R
ESCANABA       CLOUDY    28  22  78 CALM      30.23S
MENOMINEE      CLOUDY    29  26  89 CALM      30.24F
SAWYER-GWINN   MOCLDY    23  19  86 CALM      30.19S
$$
MIZ001>003-009>011-084-241400-
WESTERN UPPER MICHIGAN

CITY           SKY/WX    TMP DP  RH WIND       PRES   REMARKS
IRON MOUNTAIN  MOCLDY    16  13  88 CALM      30.18S
HOUGHTON       FAIR      16  12  84 CALM      30.15S FOG
COPPER HARBOR    N/A     19  15  84 W7        30.18R WCI  10
IRONWOOD       CLOUDY    14  13  95 CALM      30.17F
$$

ABBREVIATIONS USED IN REMARKS
   TC - TEMPERATURE IN CELSIUS
  WCI - WIND CHILL INDEX
   HX - HEAT INDEX
  VSB - VISIBILITY





USA.gov is the U.S. government's official web portal to all federal, state and local government web resources and services.